Date String (YYYY-MM-DD hh:mm:ss) UTC,Instrument flags,Ambient pressure (hPa),Sample flow (lpm),Bypass flow (lpm),Sample temperature (°C),Ambient temperature (°C),ASC tube jacket temperature (°C),LED temperature (°C),Box temperature (°C),Sample RH (%),Span deviation,Mass concentration (μg/m³),Mass concentration (μg/m³),Mass concentration (μg/m³)
DateTimeUTC,F1_M11,P_M11,Q1_M11,Q2_M11,T1_M11,T2_M11,T3_M11,T4_M11,T5_M11,U1_M11,ZSPAN_M11,X0_M11,X2_M11,X1_M11
2021-08-20 22:00:00,,0825.5,5.00,0.00,29.3,28.1,00.0,38.4,31.2,17.4,0002.5,0019.87,0013.34,0012.73
2021-08-20 22:01:00,,0825.4,4.99,0.00,29.4,28.3,00.0,38.4,31.2,17.3,0002.5,0019.78,0013.33,0012.76
2021-08-20 22:02:00,,0825.4,5.01,0.00,29.4,28.4,00.0,38.4,31.3,17.4,0002.6,0019.55,0013.34,0012.80
2021-08-20 22:03:00,,0825.4,4.99,0.00,29.5,28.6,00.0,38.4,31.3,16.8,0002.7,0019.13,0013.40,0012.85
2021-08-20 22:04:00,,0825.5,4.99,0.00,29.5,28.7,00.0,38.5,31.4,17.1,0002.6,0019.17,0013.43,0012.88
2021-08-20 22:05:00,,0825.4,5.01,0.00,29.5,28.8,00.0,38.5,31.4,16.7,0002.8,0018.96,0013.49,0012.95
2021-08-20 22:06:00,,0825.3,4.99,0.00,29.6,28.8,00.0,38.5,31.5,16.8,0002.8,0018.82,0013.53,0012.99
2021-08-20 22:07:00,,0825.4,5.02,0.00,29.6,27.5,00.0,38.5,31.1,16.9,0002.7,0019.60,0013.61,0013.04
2021-08-20 22:08:00,,0825.3,4.98,0.00,29.4,25.8,00.0,38.5,30.6,17.9,0002.7,0019.56,0013.63,0013.09
2021-08-20 22:09:00,,0825.4,5.00,0.00,29.3,25.8,00.0,38.4,30.6,17.8,0002.7,0019.04,0013.67,0013.13
2021-08-20 22:10:00,,0825.3,5.00,0.00,29.2,26.2,00.0,38.4,30.7,17.0,0002.6,0019.15,0013.73,0013.17
2021-08-20 22:11:00,,0825.3,5.00,0.00,29.2,26.6,00.0,38.4,30.8,16.9,0002.6,0019.25,0013.76,0013.22
2021-08-20 22:12:00,,0825.3,5.00,0.00,29.2,27.0,00.0,38.3,30.9,17.6,0002.6,0019.18,0013.75,0013.23
2021-08-20 22:13:00,,0825.3,5.01,0.00,29.2,27.4,00.0,38.4,31.0,17.4,0002.5,0019.40,0013.78,0013.26
2021-08-20 22:14:00,,0825.3,5.00,0.00,29.2,27.7,00.0,38.3,31.0,17.3,0002.4,0019.95,0013.82,0013.29
2021-08-20 22:15:00,,0825.3,4.99,0.00,29.3,27.9,00.0,38.4,31.1,17.3,0002.4,0020.09,0013.88,0013.30
2021-08-20 22:16:00,,0825.3,5.00,0.00,29.3,28.1,00.0,38.4,31.1,17.2,0002.4,0019.98,0013.85,0013.28
2021-08-20 22:17:00,,0825.4,5.00,0.00,29.3,28.3,00.0,38.4,31.2,17.5,0002.3,0019.92,0013.85,0013.30
2021-08-20 22:18:00,,0825.4,5.01,0.00,29.4,28.4,00.0,38.4,31.3,17.4,0002.3,0019.21,0013.85,0013.30
2021-08-20 22:19:00,,0825.4,4.98,0.00,29.4,28.5,00.0,38.4,31.3,17.1,0002.3,0019.15,0013.87,0013.32
2021-08-20 22:20:00,,0825.4,5.01,0.00,29.5,28.6,00.0,38.4,31.4,17.9,0002.3,0018.97,0013.92,0013.36
2021-08-20 22:21:00,,0825.4,4.99,0.00,29.5,28.7,00.0,38.5,31.5,17.5,0002.3,0019.00,0013.92,0013.38
2021-08-20 22:22:00,,0825.4,5.00,0.00,29.6,28.8,00.0,38.5,31.5,17.3,0002.3,0018.94,0013.97,0013.40
2021-08-20 22:23:00,,0825.4,5.00,0.00,29.6,28.5,00.0,38.5,31.4,17.5,0002.4,0019.11,0014.07,0013.47
2021-08-20 22:24:00,,0825.4,4.99,0.00,29.5,26.5,00.0,38.5,30.8,17.6,0002.4,0018.89,0014.07,0013.48
2021-08-20 22:25:00,,0825.3,5.00,0.00,29.3,25.6,00.0,38.5,30.5,18.1,0002.5,0018.45,0014.06,0013.45
2021-08-20 22:26:00,,0825.3,5.01,0.00,29.2,25.9,00.0,38.4,30.6,16.8,0002.5,0018.31,0014.02,0013.44
2021-08-20 22:27:00,,0825.3,5.01,0.00,29.2,26.4,00.0,38.4,30.7,17.1,0002.5,0018.38,0014.04,0013.44
2021-08-20 22:28:00,,0825.4,4.99,0.00,29.2,26.8,00.0,38.4,30.8,17.2,0002.5,0018.44,0014.05,0013.44
2021-08-20 22:29:00,,0825.4,5.01,0.00,29.2,27.2,00.0,38.4,30.9,17.0,0002.5,0018.73,0014.03,0013.42
2021-08-20 22:30:00,,0825.4,5.01,0.00,29.2,27.5,00.0,38.4,31.0,16.9,0002.4,0018.78,0014.02,0013.40
2021-08-20 22:31:00,,0825.4,5.00,0.00,29.3,27.8,00.0,38.4,31.1,17.5,0002.1,0018.82,0014.01,0013.36
2021-08-20 22:32:00,,0825.3,4.99,0.00,29.3,28.0,00.0,38.4,31.2,17.3,0002.1,0018.83,0014.02,0013.36
2021-08-20 22:33:00,,0825.4,5.00,0.00,29.3,28.2,00.0,38.4,31.2,17.1,0002.2,0018.82,0014.00,0013.33
2021-08-20 22:34:00,,0825.3,5.01,0.00,29.4,28.3,00.0,38.4,31.3,17.1,0002.3,0018.80,0013.95,0013.29
2021-08-20 22:35:00,,0825.4,4.99,0.00,29.4,28.5,00.0,38.4,31.3,17.1,0002.4,0018.80,0013.93,0013.25
2021-08-20 22:36:00,,0825.4,5.00,0.00,29.5,28.6,00.0,38.4,31.4,17.0,0002.1,0019.01,0013.91,0013.23
2021-08-20 22:37:00,,0825.4,4.99,0.00,29.5,28.7,00.0,38.5,31.4,17.3,0002.1,0019.04,0013.90,0013.22
2021-08-20 22:38:00,,0825.4,5.00,0.00,29.6,28.8,00.0,38.5,31.4,17.1,0001.8,0019.08,0013.90,0013.21
2021-08-20 22:39:00,,0825.4,5.01,0.00,29.6,28.9,00.0,38.5,31.5,17.2,0001.8,0019.02,0013.88,0013.19
2021-08-20 22:40:00,,0825.3,4.99,0.00,29.6,28.6,00.0,38.6,31.4,17.0,0002.0,0018.79,0013.89,0013.21
2021-08-20 22:41:00,,0825.4,5.01,0.00,29.5,26.6,00.0,38.5,30.9,17.2,0002.1,0018.77,0013.91,0013.21
2021-08-20 22:42:00,,0825.4,5.00,0.00,29.3,25.6,00.0,38.5,30.6,17.3,0002.3,0018.70,0013.90,0013.21
2021-08-20 22:43:00,,0825.4,5.00,0.00,29.3,25.9,00.0,38.5,30.6,16.9,0002.5,0018.60,0013.87,0013.18
2021-08-20 22:44:00,,0825.3,5.00,0.00,29.2,26.3,00.0,38.4,30.7,17.2,0002.4,0018.50,0013.82,0013.17
2021-08-20 22:45:00,,0825.3,5.00,0.00,29.2,26.8,00.0,38.4,30.9,17.3,0002.2,0018.51,0013.84,0013.16
2021-08-20 22:46:00,,0825.3,5.01,0.00,29.2,27.2,00.0,38.4,30.9,17.4,0002.2,0018.50,0013.84,0013.16
2021-08-20 22:47:00,,0825.4,5.01,0.00,29.2,27.5,00.0,38.4,31.0,17.1,0002.3,0018.65,0013.87,0013.17
2021-08-20 22:48:00,,0825.3,5.00,0.00,29.3,27.8,00.0,38.4,31.1,17.0,0002.2,0018.63,0013.88,0013.20
2021-08-20 22:49:00,,0825.4,5.00,0.00,29.3,28.0,00.0,38.4,31.1,16.8,0002.4,0018.59,0013.89,0013.21
2021-08-20 22:50:00,,0825.4,5.02,0.00,29.3,28.2,00.0,38.4,31.2,17.1,0002.3,0018.73,0013.94,0013.23
2021-08-20 22:51:00,,0825.4,5.00,0.00,29.4,28.3,00.0,38.4,31.3,16.9,0002.2,0018.77,0013.95,0013.24
2021-08-20 22:52:00,,0825.4,5.00,0.00,29.4,28.5,00.0,38.4,31.3,17.2,0002.3,0019.42,0013.97,0013.25
2021-08-20 22:53:00,,0825.4,4.98,0.00,29.5,28.6,00.0,38.5,31.4,16.7,0002.3,0019.44,0013.96,0013.25
2021-08-20 22:54:00,,0825.4,5.00,0.00,29.5,28.7,00.0,38.5,31.4,16.5,0002.4,0019.44,0013.98,0013.28
2021-08-20 22:55:00,,0825.5,5.01,0.00,29.5,28.8,00.0,38.5,31.4,16.9,0002.4,0019.50,0014.02,0013.31
2021-08-20 22:56:00,,0825.4,4.98,0.00,29.6,28.9,00.0,38.5,31.5,16.9,0002.3,0019.51,0014.03,0013.35
2021-08-20 22:57:00,,0825.4,5.01,0.00,29.6,28.7,00.0,38.6,31.4,16.5,0002.3,0019.46,0014.03,0013.38
2021-08-20 22:58:00,,0825.5,5.00,0.00,29.5,26.8,00.0,38.5,31.0,16.7,0002.4,0018.98,0014.00,0013.39
2021-08-20 22:59:00,,0825.5,5.00,0.00,29.4,25.7,00.0,38.5,30.7,17.0,0002.5,0018.95,0014.00,0013.39
